Location: Bidwell Hollow
(37.7387°N, 90.1707°W)
Time: 22:56:33
(UTC+00:00)

Transit 2A - Pass Details

Date: 15 May 2026
Orbit: 595 x 949 km, 66.7° (Epoch: 6 June)

Event Time Altitude Azimuth Distance (km) Brightness Sun altitude
Rises 05:40:51 0° 344° (NNW) 3,170 10.2 -33.3°
Reaches altitude 10° 05:43:53 10° 0° (N) 2,175 9.2 -33.3°
Enters shadow 05:47:16 20° 44° (NE) 1,532 7.9 -33.3°
